Weather History for KAUH - November, 2013

Change the Weather History Date:

Friday, November 8, 2013

  Actual Average Record
Temperature  
Mean Temperature 48 °F -  
Max Temperature 60 °F 52 °F 84 °F (2006)
Min Temperature 37 °F 30 °F 2 °F (1991)
Degree Days  
Heating Degree Days 16    
Moisture  
Dew Point 34 °F    
Average Humidity 63    
Maximum Humidity 79    
Minimum Humidity 42    
Precipitation  
Precipitation 0.01 in - - ()
Sea Level Pressure  
Sea Level Pressure 29.90 in    
Wind  
Wind Speed 12 mph (SSW)    
Max Wind Speed 22 mph    
Max Gust Speed 29 mph    
Visibility 10 miles    
Events      
Averages and records for this station are not official NWS values.
T = Trace of Precipitation, MM = Missing Value Source: NWS Daily Summary

Daily Weather History Graph

Daily Weather History Graph

Search for Another Location

Airport or City:

Trip Planner

Search our weather history database for the weather conditions in past years. The results will help you decide how hot, cold, wet, or windy it might be!

Date:

Astronomy

Nov. 08, 2013 Rise Set
Actual Time 7:11 AM CST 5:19 PM CST
Civil Twilight 6:42 AM CST 5:48 PM CST
Nautical Twilight 6:09 AM CST 6:21 PM CST
Astronomical Twilight 5:37 AM CST 6:53 PM CST
Moon 12:07 PM CST (11/8) 10:42 PM CST (11/8)
Length of Visible Light 11h 06m
Length of Day
10h 08m
Waxing Crescent, 33% of the Moon is Illuminated
Nov 8
Waxing Crescent
Nov 9
First Quarter
Nov 17
Full
Nov 25
Last Quarter
Dec 2
New

Hourly Weather History & Observations

Time (CST) Temp. Windchill Dew Point Humidity Pressure Visibility Wind Dir Wind Speed Gust Speed Precip Events Conditions
12:15 AM 39.2 °F 33.0 °F 31.3 °F 73% 30.19 in 10.0 mi SSE 9.2 mph - N/A   Mostly Cloudy
12:35 AM 38.1 °F 32.3 °F 31.3 °F 76% 30.18 in 10.0 mi SSE 8.1 mph - N/A   Scattered Clouds
12:55 AM 39.0 °F 32.3 °F 31.3 °F 74% 30.17 in 10.0 mi SSE 10.4 mph - N/A   Clear
1:15 AM 39.4 °F 33.2 °F 31.1 °F 72% 30.17 in 10.0 mi SSE 9.2 mph - N/A   Clear
1:35 AM 40.3 °F 33.0 °F 31.1 °F 70% 30.15 in 10.0 mi South 12.7 mph - N/A   Clear
1:55 AM 41.0 °F 33.9 °F 31.1 °F 68% 30.14 in 10.0 mi SSE 12.7 mph - N/A   Clear
2:15 AM 41.4 °F 34.3 °F 31.1 °F 67% 30.13 in 10.0 mi SSE 12.7 mph 18.4 mph N/A   Clear
2:35 AM 41.2 °F 33.7 °F 31.8 °F 69% 30.11 in 10.0 mi SSE 13.8 mph 17.3 mph N/A   Clear
2:55 AM 41.5 °F 34.2 °F 31.6 °F 68% 30.09 in 10.0 mi SSE 13.8 mph - N/A   Clear
3:15 AM 41.2 °F 33.7 °F 32.0 °F 70% 30.08 in 10.0 mi SSE 13.8 mph - N/A   Clear
3:35 AM 40.6 °F 33.8 °F 32.0 °F 71% 30.06 in 10.0 mi SSE 11.5 mph - N/A   Clear
3:55 AM 40.8 °F 32.9 °F 32.0 °F 71% 30.05 in 10.0 mi SSE 15.0 mph - N/A   Clear
4:15 AM 41.2 °F 33.0 °F 32.0 °F 70% 30.03 in 10.0 mi SSE 16.1 mph 23.0 mph N/A   Clear
4:35 AM 41.2 °F 32.7 °F 32.0 °F 70% 30.01 in 10.0 mi SSE 17.3 mph 23.0 mph N/A   Clear
4:55 AM 40.5 °F 31.5 °F 32.0 °F 72% 30.00 in 10.0 mi SSE 18.4 mph 24.2 mph N/A   Clear
5:15 AM 40.1 °F 31.6 °F 32.0 °F 73% 29.99 in 10.0 mi SSE 16.1 mph 20.7 mph N/A   Clear
5:35 AM 39.7 °F 31.9 °F 32.2 °F 74% 29.97 in 10.0 mi SSE 13.8 mph 20.7 mph N/A   Clear
5:55 AM 41.0 °F 32.8 °F 32.2 °F 71% 29.96 in 10.0 mi SSE 16.1 mph 21.9 mph N/A   Clear
6:15 AM 40.6 °F 33.0 °F 32.5 °F 73% 29.95 in 10.0 mi South 13.8 mph 23.0 mph N/A   Clear
6:35 AM 41.0 °F 33.1 °F 32.5 °F 72% 29.93 in 10.0 mi SSE 15.0 mph - N/A   Clear
6:55 AM 40.6 °F 32.7 °F 32.9 °F 74% 29.92 in 10.0 mi SSE 15.0 mph - N/A   Clear
7:15 AM 40.1 °F 32.0 °F 33.1 °F 76% 29.91 in 10.0 mi South 15.0 mph 20.7 mph N/A   Clear
7:35 AM 40.1 °F 32.4 °F 33.3 °F 77% 29.89 in 10.0 mi SSE 13.8 mph 18.4 mph N/A   Clear
7:55 AM 41.0 °F 34.7 °F 33.3 °F 74% 29.90 in 10.0 mi South 10.4 mph 18.4 mph N/A   Clear
8:15 AM 41.5 °F 33.8 °F 33.3 °F 72% 29.88 in 10.0 mi South 15.0 mph 20.7 mph N/A   Clear
8:35 AM 41.9 °F 34.0 °F 33.3 °F 71% 29.87 in 10.0 mi South 16.1 mph 23.0 mph N/A   Clear
8:55 AM 43.5 °F 35.0 °F 33.4 °F 68% 29.86 in 10.0 mi South 20.7 mph - N/A   Clear
9:15 AM 44.6 °F 38.1 °F 33.6 °F 65% 29.86 in 10.0 mi South 13.8 mph 19.6 mph N/A   Clear
9:35 AM 46.2 °F 38.3 °F 34.0 °F 62% 29.82 in 10.0 mi South 21.9 mph 26.5 mph N/A   Clear
9:55 AM 47.8 °F - 33.8 °F 58% 29.81 in 10.0 mi South 19.6 mph 26.5 mph N/A   Clear
10:15 AM 49.1 °F - 34.0 °F 56% 29.79 in 10.0 mi South 17.3 mph 25.3 mph N/A   Clear
10:35 AM 50.4 °F - 34.5 °F 55% 29.82 in 10.0 mi SSW 16.1 mph 28.8 mph N/A   Clear
10:55 AM 51.8 °F - 34.5 °F 52% 29.80 in 10.0 mi SSW 19.6 mph 23.0 mph N/A   Clear
11:15 AM 52.7 °F - 34.3 °F 50% 29.79 in 10.0 mi SSW 19.6 mph 25.3 mph N/A   Clear
11:35 AM 54.3 °F - 34.2 °F 47% 29.78 in 7.0 mi SW 18.4 mph 24.2 mph 0.01 in   Clear
11:55 AM 55.4 °F - 34.5 °F 45% 29.78 in 10.0 mi SSW 19.6 mph 25.3 mph 0.01 in   Clear
12:15 PM 56.3 °F - 34.9 °F 45% 29.77 in 10.0 mi SW 19.6 mph 28.8 mph N/A   Clear
12:35 PM 56.3 °F - 35.2 °F 45% 29.76 in 10.0 mi SSW 17.3 mph 23.0 mph N/A   Clear
12:55 PM 57.7 °F - 35.1 °F 43% 29.77 in 10.0 mi WSW 16.1 mph - N/A   Clear
1:15 PM 57.6 °F - 35.2 °F 43% 29.77 in 10.0 mi SW 15.0 mph 20.7 mph N/A   Clear
1:35 PM 59.5 °F - 36.1 °F 42% 29.73 in 10.0 mi SW 15.0 mph - N/A   Clear
1:55 PM 59.9 °F - 36.9 °F 42% 29.72 in 10.0 mi SSW 16.1 mph - N/A   Clear
2:15 PM 59.5 °F - 36.1 °F 42% 29.73 in 10.0 mi SSW 17.3 mph 23.0 mph N/A   Clear
2:35 PM 59.4 °F - 36.5 °F 43% 29.73 in 10.0 mi SSW 18.4 mph 21.9 mph N/A   Clear
2:55 PM 59.2 °F - 37.4 °F 44% 29.73 in 10.0 mi SSW 12.7 mph - N/A   Clear
3:15 PM 59.5 °F - 37.8 °F 44% 29.73 in 10.0 mi SSW 13.8 mph - N/A   Clear
3:35 PM 59.4 °F - 38.5 °F 46% 29.74 in 10.0 mi SSW 12.7 mph - N/A   Clear
3:55 PM 59.4 °F - 39.2 °F 47% 29.75 in 10.0 mi SW 11.5 mph - N/A   Clear
4:15 PM 60.6 °F - 39.4 °F 45% 29.76 in 10.0 mi SW 10.4 mph - N/A   Clear
4:35 PM 60.4 °F - 39.2 °F 45% 29.77 in 10.0 mi SW 9.2 mph - N/A   Clear
4:55 PM 59.9 °F - 39.9 °F 48% 29.77 in 10.0 mi SW 6.9 mph - N/A   Clear
5:15 PM 57.9 °F - 39.4 °F 50% 29.78 in 10.0 mi WSW 5.8 mph - N/A   Clear
5:35 PM 54.9 °F - 38.3 °F 54% 29.80 in 10.0 mi West 6.9 mph - N/A   Clear
5:55 PM 51.3 °F - 37.9 °F 60% 29.81 in 10.0 mi WNW 6.9 mph - N/A   Clear
6:15 PM 50.9 °F - 38.5 °F 62% 29.82 in 10.0 mi WNW 3.5 mph - N/A   Clear
6:35 PM 49.5 °F - 38.8 °F 67% 29.83 in 10.0 mi WNW 6.9 mph - N/A   Clear
6:55 PM 48.4 °F - 37.8 °F 67% 29.84 in 10.0 mi NW 6.9 mph - N/A   Clear
7:15 PM 46.6 °F - 38.1 °F 72% 29.85 in 10.0 mi NNW 8.1 mph - N/A   Clear
7:35 PM 47.1 °F - 37.9 °F 70% 29.86 in 10.0 mi NNW 5.8 mph - N/A   Clear
7:55 PM 45.3 °F 44.0 °F 37.6 °F 74% 29.87 in 10.0 mi NW 3.5 mph - N/A   Clear
8:15 PM 45.5 °F 44.2 °F 38.1 °F 75% 29.89 in 10.0 mi NW 3.5 mph - N/A   Clear
8:35 PM 43.7 °F 42.1 °F 36.9 °F 77% 29.90 in 10.0 mi NNW 3.5 mph - N/A   Clear
8:55 PM 45.9 °F 42.3 °F 36.1 °F 69% 29.90 in 10.0 mi North 6.9 mph - N/A   Clear
9:15 PM 43.7 °F 38.1 °F 34.5 °F 70% 29.91 in 10.0 mi North 10.4 mph - N/A   Clear
9:35 PM 46.2 °F 41.7 °F 33.3 °F 61% 29.92 in 10.0 mi North 9.2 mph - N/A   Clear
9:55 PM 42.6 °F 38.4 °F 33.1 °F 69% 29.92 in 10.0 mi North 6.9 mph - N/A   Clear
10:15 PM 39.7 °F 35.6 °F 32.0 °F 74% 29.92 in 10.0 mi North 5.8 mph - N/A   Clear
10:35 PM 40.3 °F 34.4 °F 32.0 °F 72% 29.93 in 10.0 mi North 9.2 mph - N/A   Clear
10:55 PM 39.2 °F 35.9 °F 31.3 °F 73% 29.93 in 10.0 mi North 4.6 mph - N/A   Clear
11:15 PM 38.7 °F 35.2 °F 31.8 °F 76% 29.94 in 10.0 mi North 4.6 mph - N/A   Clear
11:35 PM 37.0 °F - 31.1 °F 79% 29.94 in 10.0 mi Calm Calm - N/A   Clear
11:55 PM 37.2 °F - 31.3 °F 79% 29.95 in 10.0 mi Calm Calm - N/A   Clear